FW3021 Weather Reports


Display with metric or nautical units.
time (UTC)temp
F
wind
direction
speed
MPH
gust
MPH
rain 1hr
in
rain 24hr
in
rain mn
in
humidity
%
barometer
mb
20190920073515 55 338 2.0 3.0 0.00 0.04 0.00 95 1018.3
20190920072517 54 338 2.0 3.0 0.00 0.04 0.00 95 1018.2
20190920071515 54 338 2.0 3.0 0.00 0.04 0.00 95 1018.2
20190920070517 55 338 1.0 2.0 0.00 0.04 0.00 95 1018.2
20190920065517 55 338 1.0 2.0 0.00 0.04 0.00 95 1018.3
20190920064517 55 338 1.0 2.0 0.00 0.04 0.00 95 1018.3
20190920063517 55 338 1.0 2.0 0.00 0.04 0.00 95 1018.2
20190920062517 55 338 1.0 2.0 0.00 0.04 0.00 95 1018.1
20190920061517 55 338 1.0 2.0 0.00 0.04 0.00 94 1018.0
20190920060517 56 338 1.0 2.0 0.00 0.04 0.00 94 1017.8
20190920055517 56 338 1.0 2.0 0.00 0.04 0.00 94 1017.8
20190920054517 56 338 1.0 2.0 0.00 0.04 0.00 94 1017.7
20190920053516 57 338 1.0 2.0 0.00 0.04 0.00 94 1017.7
20190920052516 57 0.0 1.0 0.00 0.04 0.00 93 1017.6
20190920051517 58 0.0 0.0 0.00 0.04 0.00 93 1017.7
20190920050516 58 0.0 1.0 0.00 0.04 0.00 92 1017.6
20190920045517 59 0.0 1.0 0.00 0.04 0.04 91 1017.6
20190920044517 60 338 1.0 2.0 0.00 0.04 0.04 92 1017.6
20190920043515 60 338 1.0 3.0 0.00 0.04 0.04 92 1017.4
20190920042517 61 338 2.0 3.0 0.00 0.04 0.04 92 1017.4
20190920041516 61 338 1.0 2.0 0.01 0.04 0.04 92 1017.3
20190920040517 61 23 1.0 3.0 0.01 0.04 0.04 92 1017.3
20190920035517 61 0 1.0 3.0 0.01 0.04 0.04 92 1017.3
20190920034516 61 338 2.0 4.0 0.01 0.04 0.04 92 1017.5
20190920033517 61 338 1.0 3.0 0.01 0.04 0.04 93 1017.4
20190920032517 61 338 1.0 2.0 0.01 0.04 0.04 93 1017.3
20190920031516 61 0 1.0 3.0 0.00 0.03 0.03 95 1017.2
20190920030516 60 338 1.0 4.0 0.00 0.03 0.03 96 1017.2
20190920025516 59 0 1.0 4.0 0.00 0.03 0.03 96 1017.0
20190920024516 57 338 1.0 3.0 0.00 0.03 0.03 96 1016.9
20190920023517 56 0.0 2.0 0.00 0.03 0.03 95 1016.9
20190920022516 56 0.0 2.0 0.00 0.03 0.03 94 1017.0
20190920021516 56 0.0 0.0 0.00 0.03 0.03 94 1016.7
20190920020516 56 0.0 2.0 0.00 0.03 0.03 95 1016.7
20190920015517 57 158 1.0 3.0 0.00 0.03 0.03 94 1016.7
20190920014516 57 90 1.0 2.0 0.00 0.03 0.03 95 1016.7
20190920013517 57 0.0 2.0 0.00 0.03 0.03 94 1016.6
20190920012517 57 0.0 1.0 0.00 0.03 0.03 94 1016.4
20190920011516 57 135 1.0 2.0 0.00 0.03 0.03 94 1016.3
20190920010516 58 0.0 0.0 0.00 0.03 0.03 93 1016.4
20190920005516 58 0.0 1.0 0.00 0.03 0.03 94 1016.1
20190920004517 58 0.0 2.0 0.00 0.03 0.03 94 1016.0
20190920003516 59 0.0 1.0 0.00 0.03 0.03 93 1015.8
20190920002516 59 0.0 0.0 0.00 0.03 0.03 93 1015.6
20190920001517 59 0.0 0.0 0.00 0.03 0.03 93 1015.5
20190920000516 59 0.0 0.0 0.00 0.03 0.03 93 1015.3
20190919235516 60 0.0 0.0 0.00 0.03 0.03 92 1015.2
20190919234516 60 0.0 1.0 0.00 0.03 0.03 92 1015.2
20190919233516 60 0.0 0.0 0.00 0.03 0.03 91 1015.1
20190919232517 60 158 1.0 2.0 0.00 0.03 0.03 90 1015.1
20190919231516 61 0.0 0.0 0.00 0.03 0.03 90 1014.8
20190919230516 61 0.0 0.0 0.00 0.03 0.03 89 1014.7
20190919225517 61 0.0 2.0 0.00 0.03 0.03 90 1014.6
20190919224516 61 0.0 1.0 0.00 0.03 0.03 88 1014.5
20190919223517 62 180 1.0 2.0 0.00 0.03 0.03 87 1014.4
20190919222521 63 180 1.0 2.0 0.00 0.04 0.03 87 1014.3
20190919221516 63 180 1.0 2.0 0.00 0.04 0.03 86 1014.3
20190919220516 65 180 1.0 2.0 0.01 0.04 0.03 84 1014.4
20190919215516 66 0.0 2.0 0.01 0.04 0.03 83 1014.2
20190919214516 66 180 1.0 2.0 0.01 0.04 0.03 83 1014.1
20190919213516 66 180 1.0 2.0 0.01 0.04 0.03 83 1014.1
20190919212517 66 180 1.0 2.0 0.01 0.04 0.03 83 1014.0
20190919211516 66 180 1.0 4.0 0.01 0.04 0.03 84 1013.9
20190919210516 66 180 2.0 4.0 0.00 0.03 0.02 83 1013.8
20190919205516 66 180 2.0 4.0 0.00 0.03 0.02 83 1013.9
20190919204516 66 158 2.0 5.0 0.00 0.03 0.02 83 1013.8
20190919203516 66 158 2.0 5.0 0.00 0.03 0.02 83 1013.9
20190919202516 67 158 2.0 5.0 0.00 0.03 0.02 82 1013.9
20190919201516 67 158 2.0 5.0 0.00 0.03 0.02 86 1013.8
20190919200516 66 158 2.0 7.0 0.00 0.03 0.02 82 1013.8
20190919195516 66 158 3.0 6.0 0.00 0.03 0.02 85 1013.9
20190919194516 66 158 3.0 6.0 0.00 0.03 0.02 84 1014.0
20190919193516 66 158 2.0 6.0 0.00 0.03 0.02 84 1014.0
20190919192516 65 113 1.0 2.0 0.00 0.04 0.02 86 1014.1
20190919191516 65 158 3.0 6.0 0.00 0.04 0.02 87 1014.1
20190919190516 66 158 3.0 5.0 0.00 0.04 0.02 83 1014.3
20190919185515 67 158 3.0 5.0 0.00 0.04 0.02 84 1014.2
20190919184516 66 135 2.0 4.0 0.00 0.04 0.02 86 1014.1
20190919183515 64 158 3.0 5.0 0.00 0.04 0.02 86 1014.0
20190919182516 65 158 3.0 6.0 0.00 0.04 0.02 84 1014.0
20190919181516 65 158 3.0 5.0 0.00 0.04 0.02 88 1014.1
20190919180516 63 158 3.0 6.0 0.01 0.04 0.02 87 1014.1
20190919175516 63 158 4.0 6.0 0.01 0.04 0.02 87 1014.1
20190919174516 64 158 2.0 6.0 0.01 0.04 0.02 87 1014.3
20190919173516 64 158 2.0 6.0 0.01 0.04 0.02 88 1014.6
20190919172515 64 158 4.0 6.0 0.01 0.04 0.02 83 1014.6
20190919171515 67 158 3.0 5.0 0.01 0.04 0.02 84 1014.5
20190919170516 67 158 3.0 6.0 0.00 0.03 0.01 85 1014.6
20190919165521 67 158 3.0 6.0 0.00 0.03 0.01 86 1014.6
20190919164516 66 158 2.0 5.0 0.00 0.03 0.01 86 1014.7
20190919163515 66 158 2.0 4.0 0.00 0.03 0.01 86 1014.8
20190919162515 65 180 1.0 4.0 0.00 0.03 0.01 90 1014.8
20190919161516 65 158 2.0 4.0 0.00 0.03 0.01 85 1014.7
20190919160516 65 158 2.0 5.0 0.00 0.03 0.01 86 1014.8
20190919155516 64 158 2.0 4.0 0.00 0.03 0.01 89 1014.7
20190919154515 64 158 2.0 5.0 0.00 0.04 0.01 89 1014.6
20190919153515 62 158 2.0 4.0 0.00 0.04 0.01 92 1014.4
20190919152515 61 158 1.0 3.0 0.00 0.04 0.01 92 1014.5
20190919151515 61 158 2.0 4.0 0.00 0.04 0.01 95 1014.5
20190919150515 61 0.0 1.0 0.00 0.04 0.01 96 1014.4
20190919145515 58 0.0 0.0 0.00 0.04 0.01 95 1014.2
20190919144521 57 0.0 1.0 0.00 0.04 0.01 93 1014.2
20190919143515 57 0.0 1.0 0.00 0.04 0.01 92 1014.2
20190919142515 58 0.0 0.0 0.00 0.04 0.01 94 1014.1
20190919141515 57 0.0 1.0 0.00 0.04 0.01 94 1014.2
20190919140515 57 0.0 1.0 0.00 0.04 0.01 95 1014.3
20190919135515 57 180 1.0 2.0 0.00 0.04 0.01 95 1014.4
20190919134515 57 0.0 3.0 0.00 0.04 0.01 96 1014.5
20190919133515 57 0.0 1.0 0.00 0.04 0.01 96 1014.6
20190919132515 57 0.0 0.0 0.00 0.04 0.01 96 1014.5
20190919131515 57 0.0 0.0 0.00 0.04 0.01 96 1014.4
20190919130516 57 0.0 1.0 0.00 0.04 0.01 96 1014.3
20190919125515 57 0.0 2.0 0.00 0.04 0.01 96 1014.2
20190919124515 57 0.0 0.0 0.00 0.04 0.01 96 1014.1
20190919123515 56 0.0 0.0 0.00 0.04 0.01 96 1013.9
20190919122520 56 0.0 1.0 0.00 0.04 0.01 96 1013.6
20190919121515 56 0.0 0.0 0.00 0.05 0.01 96 1013.3
20190919120515 56 0 1.0 2.0 0.00 0.05 0.01 96 1012.8
20190919115515 56 0 1.0 2.0 0.00 0.05 0.01 96 1012.4
20190919114515 57 0.0 1.0 0.00 0.05 0.01 96 1012.3
20190919113515 56 0.0 1.0 0.00 0.05 0.01 96 1011.9
20190919112515 56 0 1.0 3.0 0.00 0.05 0.01 96 1011.8
20190919111515 55 0 1.0 2.0 0.00 0.05 0.01 96 1011.5
20190919110515 55 0 1.0 2.0 0.00 0.05 0.01 96 1011.5
20190919105515 55 0 2.0 2.0 0.00 0.05 0.01 96 1011.4
20190919104515 55 0 2.0 2.0 0.00 0.05 0.01 95 1011.5
20190919103515 56 0 1.0 2.0 0.00 0.05 0.01 96 1011.3
20190919102515 56 0 1.0 2.0 0.01 0.05 0.01 95 1011.2
20190919101515 56 0 1.0 2.0 0.01 0.05 0.01 95 1011.1
20190919100515 57 0 1.0 2.0 0.01 0.05 0.01 96 1011.0
20190919095515 57 0 1.0 2.0 0.01 0.05 0.01 95 1011.0
20190919094515 58 0 1.0 2.0 0.01 0.05 0.01 96 1011.0
20190919093515 58 23 1.0 3.0 0.01 0.05 0.01 96 1011.1
20190919092517 58 45 1.0 2.0 0.00 0.04 0.00 96 1011.1
20190919091517 59 0.0 2.0 0.00 0.04 0.00 96 1011.0
20190919090517 59 0.0 2.0 0.00 0.04 0.00 96 1010.7
20190919085517 59 0.0 2.0 0.00 0.04 0.00 96 1011.0
20190919084517 59 0.0 3.0 0.00 0.04 0.00 96 1011.1
20190919083517 59 23 1.0 2.0 0.00 0.04 0.00 97 1010.9
20190919082517 59 0 1.0 3.0 0.00 0.04 0.00 96 1011.0
20190919081516 59 0 1.0 2.0 0.00 0.04 0.00 96 1011.0
20190919080517 59 338 1.0 3.0 0.00 0.04 0.00 96 1011.0
20190919075517 59 315 1.0 2.0 0.00 0.04 0.00 96 1010.9
20190919074517 59 338 1.0 2.0 0.00 0.04 0.00 96 1010.8